When you browse on this site, cookies collect data to enhance your experience and personalize the content and advertising you see.
Visit our Privacy Policy to learn more. By continuing to use the site, you agree to this use of cookies and data.
  • In Lithuania
  • List of Countries
  • For 7 days
  • Water Temperature
  • Satellite Maps
  • Weather Map
  • Weather Widgets
  • user-avatar
    Login

    Hourly Weather Syamzha

    Today, 20 January, Sunday

    Time Temperature Precipitation Wind Pressure Humidity
    00:00 -15°C° 0 mm 3 mps 737 mmHg 93%
    01:00 -15°C° 0 mm 3 mps 738 mmHg 94%
    02:00 -15°C° 0 mm 3 mps 738 mmHg 94%
    03:00 -16°C° 0 mm 3 mps 738 mmHg 94%
    04:00 -16°C° 0 mm 3 mps 738 mmHg 95%
    05:00 -16°C° 0 mm 3 mps 738 mmHg 95%
    06:00 -16°C° 0 mm 3 mps 738 mmHg 95%
    07:00 -15°C° 0 mm 3 mps 738 mmHg 95%
    08:00 -15°C° 0 mm 3 mps 738 mmHg 94%
    09:00 -14°C° 0 mm 3 mps 738 mmHg 93%
    10:00 -13°C° 0 mm 3 mps 737 mmHg 93%
    11:00 -13°C° 0 mm 3 mps 737 mmHg 92%
    12:00 -12°C° 0 mm 3 mps 736 mmHg 91%
    13:00 -12°C° 0.2 mm 3 mps 736 mmHg 91%
    14:00 -11°C° 0.2 mm 4 mps 735 mmHg 92%
    15:00 -11°C° 0.2 mm 4 mps 735 mmHg 92%
    16:00 -11°C° 0.3 mm 4 mps 734 mmHg 92%
    17:00 -9°C° 0.3 mm 3 mps 734 mmHg 93%
    18:00 -8°C° 0.3 mm 3 mps 733 mmHg 93%
    19:00 -8°C° 0.1 mm 3 mps 733 mmHg 93%
    20:00 -8°C° 0.1 mm 3 mps 732 mmHg 94%
    21:00 -7°C° 0.1 mm 2 mps 732 mmHg 94%
    22:00 -7°C° 0.1 mm 2 mps 732 mmHg 95%
    23:00 -8°C° 0.1 mm 2 mps 732 mmHg 96%

    Tomorrow, 21 January, Monday

    Time Temperature Precipitation Wind Pressure Humidity
    00:00 -8°C° 0.1 mm 2 mps 732 mmHg 96%
    01:00 -8°C° 0.2 mm 2 mps 732 mmHg 96%
    02:00 -8°C° 0.2 mm 2 mps 733 mmHg 96%
    03:00 -8°C° 0.2 mm 2 mps 733 mmHg 95%
    04:00 -10°C° 0.1 mm 3 mps 734 mmHg 95%
    05:00 -12°C° 0.1 mm 3 mps 734 mmHg 94%
    06:00 -13°C° 0.1 mm 3 mps 734 mmHg 93%
    07:00 -15°C° 0 mm 3 mps 735 mmHg 94%
    08:00 -17°C° 0 mm 3 mps 735 mmHg 95%
    09:00 -17°C° 0 mm 2 mps 736 mmHg 95%
    10:00 -18°C° 0 mm 2 mps 736 mmHg 95%
    11:00 -18°C° 0 mm 2 mps 737 mmHg 95%
    12:00 -19°C° 0 mm 2 mps 737 mmHg 95%
    13:00 -19°C° 0 mm 2 mps 738 mmHg 95%
    14:00 -20°C° 0 mm 2 mps 738 mmHg 96%
    15:00 -20°C° 0 mm 2 mps 738 mmHg 96%
    16:00 -21°C° 0 mm 2 mps 739 mmHg 97%
    17:00 -23°C° 0 mm 2 mps 739 mmHg 97%
    18:00 -24°C° 0 mm 2 mps 739 mmHg 98%
    19:00 -25°C° 0 mm 2 mps 739 mmHg 98%
    20:00 -26°C° 0 mm 2 mps 739 mmHg 98%
    21:00 -26°C° 0 mm 2 mps 739 mmHg 98%
    22:00 -26°C° 0 mm 2 mps 740 mmHg 98%
    23:00 -23°C° 0 mm 1 mps 740 mmHg 98%

    Day after tomorrow, 22 January, Tuesday

    Time Temperature Precipitation Wind Pressure Humidity
    00:00 -23°C° 0 mm 1 mps 740 mmHg 98%
    01:00 -23°C° 0 mm 1 mps 740 mmHg 98%
    02:00 -22°C° 0 mm 1 mps 740 mmHg 98%
    03:00 -22°C° 0 mm 1 mps 740 mmHg 98%
    04:00 -21°C° 0.1 mm 1 mps 740 mmHg 98%
    05:00 -19°C° 0.1 mm 1 mps 740 mmHg 97%
    06:00 -18°C° 0.1 mm 1 mps 740 mmHg 97%
    07:00 -19°C° 0 mm 2 mps 741 mmHg 97%
    08:00 -18°C° 0 mm 2 mps 741 mmHg 97%
    09:00 -17°C° 0 mm 2 mps 742 mmHg 97%
    10:00 -17°C° 0 mm 2 mps 742 mmHg 96%
    11:00 -17°C° 0 mm 2 mps 742 mmHg 94%
    12:00 -16°C° 0 mm 2 mps 742 mmHg 93%
    13:00 -17°C° 0 mm 2 mps 742 mmHg 94%
    14:00 -17°C° 0 mm 2 mps 743 mmHg 94%
    15:00 -17°C° 0 mm 2 mps 743 mmHg 95%
    16:00 -17°C° 0 mm 2 mps 743 mmHg 96%
    17:00 -17°C° 0 mm 2 mps 743 mmHg 97%
    18:00 -17°C° 0 mm 2 mps 743 mmHg 97%
    19:00 -17°C° 0 mm 2 mps 743 mmHg 97%
    20:00 -16°C° 0 mm 2 mps 744 mmHg 97%
    21:00 -16°C° 0 mm 2 mps 744 mmHg 97%
    22:00 -17°C° 0 mm 2 mps 744 mmHg 97%
    23:00 -18°C° 0 mm 2 mps 744 mmHg 97%

    23 January, Wednesday

    Time Temperature Precipitation Wind Pressure Humidity
    00:00 -18°C° 0 mm 2 mps 744 mmHg 97%
    01:00 -19°C° 0 mm 2 mps 744 mmHg 97%
    02:00 -19°C° 0 mm 2 mps 744 mmHg 97%
    03:00 -20°C° 0 mm 2 mps 744 mmHg 97%
    04:00 -21°C° 0 mm 2 mps 744 mmHg 97%
    05:00 -21°C° 0 mm 2 mps 744 mmHg 97%
    06:00 -23°C° 0 mm 2 mps 743 mmHg 98%
    07:00 -24°C° 0 mm 3 mps 743 mmHg 97%
    08:00 -25°C° 0 mm 3 mps 743 mmHg 97%
    09:00 -25°C° 0 mm 3 mps 744 mmHg 97%
    10:00 -24°C° 0 mm 3 mps 744 mmHg 97%
    11:00 -24°C° 0 mm 3 mps 744 mmHg 96%
    12:00 -23°C° 0 mm 3 mps 744 mmHg 96%
    13:00 -23°C° 0 mm 3 mps 744 mmHg 95%
    14:00 -22°C° 0 mm 3 mps 744 mmHg 95%
    15:00 -21°C° 0 mm 3 mps 743 mmHg 95%
    16:00 -21°C° 0.1 mm 3 mps 743 mmHg 95%
    17:00 -19°C° 0.1 mm 3 mps 744 mmHg 95%
    18:00 -19°C° 0.1 mm 3 mps 744 mmHg 95%
    19:00 -17°C° 0.2 mm 2 mps 744 mmHg 95%
    20:00 -17°C° 0.2 mm 2 mps 744 mmHg 96%
    21:00 -14°C° 0.2 mm 1 mps 744 mmHg 96%
    22:00 -14°C° 0.2 mm 1 mps 743 mmHg 97%
    23:00 -14°C° 0.2 mm 1 mps 743 mmHg 97%

    24 January, Thursday

    Time Temperature Precipitation Wind Pressure Humidity
    00:00 -14°C° 0.2 mm 0 mps 743 mmHg 97%
    01:00 -15°C° 0.1 mm 0 mps 743 mmHg 98%
    02:00 -16°C° 0.1 mm 1 mps 743 mmHg 98%
    03:00 -16°C° 0.1 mm 1 mps 743 mmHg 98%
    04:00 -18°C° 0 mm 1 mps 744 mmHg 98%
    05:00 -19°C° 0 mm 1 mps 744 mmHg 99%
    06:00 -20°C° 0 mm 1 mps 744 mmHg 99%
    07:00 -21°C° 0 mm 1 mps 744 mmHg 99%
    08:00 -24°C° 0 mm 2 mps 745 mmHg 99%
    09:00 -25°C° 0 mm 2 mps 746 mmHg 99%
    10:00 -24°C° 0 mm 2 mps 746 mmHg 97%
    11:00 -23°C° 0 mm 2 mps 747 mmHg 96%
    12:00 -21°C° 0 mm 2 mps 747 mmHg 95%
    13:00 -20°C° 0 mm 2 mps 748 mmHg 95%
    14:00 -20°C° 0 mm 2 mps 748 mmHg 95%
    15:00 -20°C° 0 mm 2 mps 749 mmHg 95%
    16:00 -21°C° 0 mm 2 mps 749 mmHg 96%
    17:00 -23°C° 0 mm 2 mps 750 mmHg 97%
    18:00 -25°C° 0 mm 2 mps 750 mmHg 98%
    19:00 -25°C° 0 mm 2 mps 750 mmHg 98%
    20:00 -25°C° 0 mm 2 mps 751 mmHg 98%
    21:00 -26°C° 0 mm 2 mps 751 mmHg 99%
    22:00 -26°C° 0 mm 2 mps 751 mmHg 99%
    23:00 -26°C° 0 mm 2 mps 751 mmHg 99%

    25 January, Friday

    Time Temperature Precipitation Wind Pressure Humidity
    00:00 -26°C° 0 mm 2 mps 751 mmHg 99%
    01:00 -25°C° 0 mm 2 mps 752 mmHg 98%
    02:00 -24°C° 0 mm 2 mps 752 mmHg 98%
    03:00 -23°C° 0 mm 2 mps 752 mmHg 98%
    04:00 -23°C° 0 mm 2 mps 752 mmHg 98%
    05:00 -21°C° 0 mm 2 mps 752 mmHg 98%
    06:00 -21°C° 0 mm 2 mps 752 mmHg 98%
    07:00 -19°C° 0 mm 2 mps 752 mmHg 97%
    08:00 -18°C° 0 mm 2 mps 752 mmHg 97%
    09:00 -16°C° 0 mm 2 mps 752 mmHg 96%
    10:00 -15°C° 0 mm 2 mps 752 mmHg 95%
    11:00 -15°C° 0 mm 3 mps 752 mmHg 93%
    12:00 -14°C° 0 mm 3 mps 752 mmHg 91%
    13:00 -14°C° 0 mm 3 mps 752 mmHg 92%
    14:00 -14°C° 0 mm 3 mps 752 mmHg 92%
    15:00 -14°C° 0 mm 2 mps 752 mmHg 92%
    16:00 -14°C° 0 mm 2 mps 751 mmHg 93%
    17:00 -14°C° 0 mm 2 mps 751 mmHg 94%
    18:00 -14°C° 0 mm 2 mps 751 mmHg 95%
    19:00 -15°C° 0.1 mm 3 mps 750 mmHg 95%
    20:00 -15°C° 0.1 mm 3 mps 750 mmHg 94%
    21:00 -15°C° 0.1 mm 3 mps 749 mmHg 93%
    22:00 -15°C° 0.1 mm 3 mps 749 mmHg 93%
    23:00 -15°C° 0.1 mm 3 mps 749 mmHg 94%
    Show more